Weather History for KANE - February, 2013

Change the Weather History Date:

Monday, February 25, 2013

  Actual Average Record
Temperature  
Mean Temperature 26 °F -  
Max Temperature 35 °F 29 °F 50 °F (1998)
Min Temperature 17 °F 15 °F -9 °F (2003)
Degree Days  
Heating Degree Days 39    
Moisture  
Dew Point 21 °F    
Average Humidity 83    
Maximum Humidity 100    
Minimum Humidity 60    
Precipitation  
Precipitation 0.00 in - - ()
Sea Level Pressure  
Sea Level Pressure 30.06 in    
Wind  
Wind Speed 0 mph (NE)    
Max Wind Speed 4 mph    
Max Gust Speed -    
Visibility 8 miles    
Events      
Averages and records for this station are not official NWS values.
T = Trace of Precipitation, MM = Missing Value Source: NWS Daily Summary

Daily Weather History Graph

Daily Weather History Graph

Search for Another Location

Airport or City:

Trip Planner

Search our weather history database for the weather conditions in past years. The results will help you decide how hot, cold, wet, or windy it might be!

Date:

Astronomy

Feb. 25, 2013 Rise Set
Actual Time 6:57 AM CST 5:55 PM CST
Civil Twilight 6:27 AM CST 6:24 PM CST
Nautical Twilight 5:53 AM CST 6:58 PM CST
Astronomical Twilight 5:19 AM CST 7:33 PM CST
Moon 6:12 PM CST (2/25) 6:26 AM CST (2/25)
Length of Visible Light 11h 57m
Length of Day
10h 57m
Full, 100% of the Moon is Illuminated
Feb 25
Full
Feb 25
Full
Mar 4
Last Quarter
Mar 11
New
Mar 19
First Quarter

Hourly Weather History & Observations

Time (CST) Temp. Windchill Dew Point Humidity Pressure Visibility Wind Dir Wind Speed Gust Speed Precip Events Conditions
12:14 AM 19.4 °F - 17.6 °F 93% 30.09 in 10.0 mi Calm Calm - N/A   Overcast
12:34 AM 19.4 °F - 17.6 °F 93% 30.09 in 7.0 mi Calm Calm - N/A   Overcast
12:54 AM 21.2 °F - 19.4 °F 93% 30.08 in 10.0 mi Calm Calm - N/A   Overcast
1:14 AM 21.2 °F - 19.4 °F 93% 30.08 in 10.0 mi Calm Calm - N/A   Overcast
1:34 AM 23.0 °F - 21.2 °F 93% 30.08 in 10.0 mi Calm Calm - N/A   Overcast
1:53 AM 23.0 °F - 21.2 °F 93% 30.08 in 10.0 mi Calm Calm - N/A   Overcast
2:14 AM 24.8 °F - 21.2 °F 86% 30.08 in 10.0 mi Calm Calm - N/A   Overcast
2:34 AM 24.8 °F - 21.2 °F 86% 30.08 in 10.0 mi Calm Calm - N/A   Overcast
2:53 AM 24.8 °F - 21.2 °F 86% 30.07 in 10.0 mi Calm Calm - N/A   Overcast
3:14 AM 24.8 °F - 21.2 °F 86% 30.07 in 10.0 mi Calm Calm - N/A   Overcast
3:34 AM 24.8 °F - 21.2 °F 86% 30.07 in 10.0 mi Calm Calm - N/A   Overcast
3:53 AM 24.8 °F - 21.2 °F 86% 30.06 in 10.0 mi Calm Calm - N/A   Overcast
4:14 AM 26.6 °F - 21.2 °F 80% 30.06 in 10.0 mi Calm Calm - N/A   Overcast
4:34 AM 26.6 °F - 23.0 °F 86% 30.06 in 10.0 mi Calm Calm - N/A   Overcast
4:54 AM 26.6 °F - 23.0 °F 86% 30.07 in 10.0 mi Calm Calm - N/A   Overcast
5:14 AM 26.6 °F - 23.0 °F 86% 30.06 in 10.0 mi Calm Calm - N/A   Overcast
5:34 AM 26.6 °F - 23.0 °F 86% 30.06 in 10.0 mi Calm Calm - N/A   Overcast
6:14 AM 26.6 °F - 23.0 °F 86% 30.07 in 10.0 mi Calm Calm - N/A   Overcast
6:33 AM 26.6 °F - 23.0 °F 86% 30.09 in 10.0 mi Calm Calm - N/A   Overcast
6:45 AM 26.6 °F - 21.2 °F 80% 30.09 in 7.0 mi Calm Calm - N/A   Overcast
6:54 AM 26.6 °F - 23.0 °F 86% 30.09 in 10.0 mi Calm Calm - N/A   Overcast
7:45 AM 26.6 °F 22.6 °F 23.0 °F 86% 30.08 in 7.0 mi North 3.5 mph - N/A   Overcast
9:45 AM 28.4 °F - 21.2 °F 74% 30.09 in 7.0 mi Calm Calm - N/A   Overcast
10:55 AM 30.2 °F - 21.2 °F 69% 30.09 in 7.0 mi Calm Calm - N/A   Overcast
11:45 AM 32.0 °F - 21.2 °F 64% 30.09 in 7.0 mi Calm Calm - N/A   Overcast
12:45 PM 33.8 °F - 21.2 °F 60% 30.07 in 7.0 mi Calm Calm - N/A   Mostly Cloudy
1:55 PM 33.8 °F - 23.0 °F 65% 30.06 in 7.0 mi Calm Calm - N/A   Scattered Clouds
2:45 PM 35.6 °F - 23.0 °F 60% 30.04 in 7.0 mi Calm Calm - N/A   Scattered Clouds
3:45 PM 35.6 °F - 23.0 °F 60% 30.05 in 10.0 mi Calm Calm - N/A   Partly Cloudy
4:45 PM 35.6 °F - 23.0 °F 60% 30.05 in 10.0 mi Calm Calm - N/A   Clear
5:45 PM 33.8 °F - 23.0 °F 65% 30.05 in 10.0 mi Calm Calm - N/A   Clear
6:45 PM 33.8 °F - 23.0 °F 65% 30.05 in 10.0 mi Calm Calm - N/A   Clear
7:45 PM 28.4 °F - 24.8 °F 86% 30.06 in 10.0 mi Calm Calm - N/A   Clear
9:14 PM 24.8 °F - 21.2 °F 86% 30.05 in 4.0 mi Calm Calm - N/A   Clear
9:34 PM 21.2 °F 16.4 °F 19.4 °F 93% 30.04 in 3.0 mi ENE 3.5 mph - N/A   Clear
9:53 PM 23.0 °F - 21.2 °F 93% 30.03 in 4.0 mi Calm Calm - N/A   Clear
10:14 PM 21.2 °F - 19.4 °F 93% 30.02 in 2.0 mi Calm Calm - N/A   Clear
10:34 PM 19.4 °F 14.3 °F 19.4 °F 100% 30.03 in 2.0 mi ENE 3.5 mph - N/A   Clear
10:54 PM 21.2 °F - 21.2 °F 100% 30.03 in 1.8 mi Calm Calm - N/A   Mist
11:14 PM 17.6 °F - 15.8 °F 93% 30.04 in 1.8 mi Calm Calm - N/A   Mist
11:34 PM 19.4 °F - 19.4 °F 100% 30.04 in 1.2 mi Calm Calm - N/A   Mist
11:54 PM 19.4 °F - 17.6 °F 93% 30.03 in 1.2 mi Calm Calm - N/A   Mist